Weather History for Middlesboro, KY

Change the Weather History Date:

Monday, March 31, 2014

  Actual Average (KLOZ) Record (KLOZ)
Temperature  
Mean Temperature 50 °F 52 °F  
Max Temperature 71 °F 64 °F 84 °F (1963)
Min Temperature 28 °F 40 °F 18 °F (1969)
Degree Days  
Heating Degree Days 16 13  
Month to date heating degree days 548  
Since 1 July heating degree days 3825  
Cooling Degree Days 0 0  
Month to date cooling degree days 3  
Year to date cooling degree days 3  
Moisture  
Dew Point 31 °F    
Average Humidity 61    
Maximum Humidity 99    
Minimum Humidity 17    
Precipitation  
Precipitation 0.00 in 0.13 in 1.15 in (2002)
Month to date precipitation 4.05  
Year to date precipitation 11.30  
Sea Level Pressure  
Sea Level Pressure 30.16 in    
Wind  
Wind Speed 1 mph (ESE)    
Max Wind Speed 7 mph    
Max Gust Speed -    
Visibility 10 miles    
Events      
T = Trace of Precipitation, MM = Missing Value Source: NWS Daily Summary

Daily Weather History Graph

Daily Weather History Graph

Search for Another Location

Airport:

Trip Planner

Search our weather history database for the weather conditions in past years. The results will help you decide how hot, cold, wet, or windy it might be!

Date:

Astronomy

Mar. 31, 2014 Rise Set
Actual Time 6:22 AM CDT 6:56 PM CDT
Civil Twilight 5:56 AM CDT 7:22 PM CDT
Nautical Twilight 5:25 AM CDT 7:53 PM CDT
Astronomical Twilight 4:54 AM CDT 8:24 PM CDT
Moon 6:46 AM CDT (3/31) 8:11 PM CDT (3/31)
Length of Visible Light 13h 25m
Length of Day
12h 33m
New Moon, 1% of the Moon is Illuminated
Mar 31
New Moon
Apr 7
First Quarter
Apr 15
Full
Apr 22
Last Quarter
Apr 29
New

Hourly Weather History & Observations

Time (CDT) Temp. Dew Point Humidity Pressure Visibility Wind Dir Wind Speed Gust Speed Precip Events Conditions
12:15 AM 33.6 °F 31.3 °F 91% 30.20 in 10.0 mi Calm Calm - N/A   Clear
12:35 AM 33.3 °F 31.1 °F 92% 30.19 in 10.0 mi Calm Calm - N/A   Clear
12:55 AM 32.7 °F 30.9 °F 93% 30.18 in 10.0 mi Calm Calm - N/A   Clear
1:15 AM 32.0 °F 30.9 °F 96% 30.18 in 10.0 mi Calm Calm - N/A   Clear
1:35 AM 31.8 °F 30.0 °F 93% 30.18 in 10.0 mi Calm Calm - N/A   Clear
1:55 AM 31.3 °F 30.0 °F 95% 30.19 in 10.0 mi Calm Calm - N/A   Clear
2:15 AM 31.5 °F 30.2 °F 95% 30.18 in 10.0 mi Calm Calm - N/A   Clear
2:35 AM 30.9 °F 29.7 °F 95% 30.18 in 10.0 mi Calm Calm - N/A   Clear
2:55 AM 30.6 °F 29.7 °F 96% 30.18 in 10.0 mi Calm Calm - N/A   Clear
3:15 AM 31.1 °F 30.0 °F 96% 30.19 in 10.0 mi Calm Calm - N/A   Clear
3:35 AM 30.2 °F 29.3 °F 96% 30.18 in 10.0 mi Calm Calm - N/A   Clear
3:55 AM 30.0 °F 29.3 °F 97% 30.19 in 10.0 mi Calm Calm - N/A   Clear
4:15 AM 29.8 °F 29.3 °F 98% 30.19 in 10.0 mi Calm Calm - N/A   Clear
4:35 AM 29.7 °F 29.5 °F 99% 30.20 in 10.0 mi Calm Calm - N/A   Clear
4:55 AM 29.3 °F 28.8 °F 98% 30.20 in 10.0 mi Calm Calm - N/A   Clear
5:15 AM 29.1 °F 28.8 °F 99% 30.21 in 10.0 mi Calm Calm - N/A   Clear
5:35 AM 29.3 °F 28.8 °F 98% 30.21 in 10.0 mi Calm Calm - N/A   Clear
5:55 AM 28.9 °F 28.4 °F 98% 30.23 in 10.0 mi Calm Calm - N/A   Clear
6:15 AM 28.4 °F 28.2 °F 99% 30.23 in 10.0 mi Calm Calm - N/A   Clear
6:35 AM 28.6 °F 28.0 °F 98% 30.24 in 7.0 mi Calm Calm - N/A   Clear
6:55 AM 28.9 °F 28.4 °F 98% 30.24 in 10.0 mi Calm Calm - N/A   Clear
7:15 AM 29.7 °F 29.1 °F 98% 30.24 in 10.0 mi Calm Calm - N/A   Clear
7:35 AM 30.7 °F 29.8 °F 96% 30.25 in 10.0 mi Calm Calm - N/A   Clear
7:55 AM 32.0 °F 30.9 °F 96% 30.25 in 10.0 mi Calm Calm - N/A   Clear
8:15 AM 33.6 °F 31.5 °F 92% 30.25 in 10.0 mi Calm Calm - N/A   Clear
8:35 AM 35.4 °F 31.6 °F 86% 30.25 in 10.0 mi Calm Calm - N/A   Clear
8:55 AM 38.7 °F 32.4 °F 78% 30.25 in 10.0 mi Calm Calm - N/A   Clear
9:15 AM 41.9 °F 33.6 °F 72% 30.24 in 10.0 mi Calm Calm - N/A   Clear
9:35 AM 44.1 °F 34.9 °F 70% 30.24 in 10.0 mi Calm Calm - N/A   Clear
9:55 AM 45.7 °F 33.3 °F 62% 30.24 in 10.0 mi Calm Calm - N/A   Clear
10:10 AM 48.0 °F 33.6 °F 57% 30.23 in 10.0 mi Calm Calm - N/A   Clear
10:35 AM 52.9 °F 32.9 °F 47% 30.22 in 10.0 mi Calm Calm - N/A   Clear
10:55 AM 55.2 °F 32.0 °F 41% 30.21 in 10.0 mi Calm Calm - N/A   Clear
11:15 AM 57.7 °F 30.2 °F 35% 30.21 in 10.0 mi Calm Calm - N/A   Clear
11:35 AM 59.0 °F 27.9 °F 31% 30.20 in 10.0 mi Calm Calm - N/A   Clear
11:55 AM 60.1 °F 27.7 °F 29% 30.19 in 10.0 mi Calm Calm - N/A   Clear
12:15 PM 61.7 °F 28.0 °F 28% 30.18 in 10.0 mi NE 3.5 mph - N/A   Clear
12:35 PM 63.3 °F 28.4 °F 27% 30.17 in 10.0 mi East 4.6 mph - N/A   Clear
12:55 PM 64.8 °F 27.9 °F 25% 30.16 in 10.0 mi SE 3.5 mph - N/A   Clear
1:15 PM 66.0 °F 28.6 °F 25% 30.16 in 10.0 mi East 6.9 mph - N/A   Clear
1:35 PM 66.2 °F 26.2 °F 22% 30.15 in 10.0 mi ENE 4.6 mph - N/A   Clear
1:55 PM 66.9 °F 25.5 °F 21% 30.14 in 10.0 mi NE 5.8 mph - N/A   Clear
2:15 PM 68.2 °F 24.3 °F 19% 30.13 in 10.0 mi ESE 5.8 mph - N/A   Clear
2:35 PM 68.5 °F 25.0 °F 19% 30.12 in 10.0 mi East 6.9 mph - N/A   Clear
2:55 PM 68.9 °F 23.7 °F 18% 30.11 in 10.0 mi ENE 3.5 mph - N/A   Clear
3:15 PM 70.0 °F 25.0 °F 18% 30.10 in 10.0 mi Calm Calm - N/A   Clear
3:35 PM 70.3 °F 24.3 °F 18% 30.10 in 10.0 mi Calm Calm - N/A   Clear
3:55 PM 70.9 °F 25.0 °F 18% 30.09 in 10.0 mi Calm Calm - N/A   Clear
4:15 PM 71.1 °F 24.1 °F 17% 30.09 in 10.0 mi Calm Calm - N/A   Clear
4:35 PM 70.9 °F 24.1 °F 17% 30.08 in 10.0 mi SW 4.6 mph - N/A   Clear
4:55 PM 69.8 °F 23.7 °F 18% 30.08 in 10.0 mi SSW 4.6 mph - N/A   Clear
5:15 PM 70.7 °F 26.8 °F 19% 30.08 in 10.0 mi South 4.6 mph - N/A   Clear
5:35 PM 69.1 °F 26.4 °F 20% 30.08 in 10.0 mi SSE 3.5 mph - N/A   Clear
5:55 PM 68.5 °F 28.2 °F 22% 30.07 in 10.0 mi South 3.5 mph - N/A   Clear
6:15 PM 67.5 °F 27.1 °F 22% 30.07 in 10.0 mi Calm Calm - N/A   Clear
6:35 PM 65.3 °F 34.5 °F 32% 30.07 in 10.0 mi Calm Calm - N/A   Clear
6:55 PM 62.8 °F 32.9 °F 33% 30.08 in 10.0 mi Calm Calm - N/A   Clear
7:15 PM 59.2 °F 35.8 °F 42% 30.08 in 10.0 mi WNW 3.5 mph - N/A   Clear
7:35 PM 56.3 °F 39.6 °F 53% 30.08 in 10.0 mi WNW 3.5 mph - N/A   Clear
7:55 PM 55.6 °F 37.4 °F 50% 30.09 in 10.0 mi Calm Calm - N/A   Clear
8:15 PM 55.4 °F 35.4 °F 47% 30.09 in 10.0 mi Calm Calm - N/A   Clear
8:35 PM 54.7 °F 35.8 °F 49% 30.10 in 10.0 mi Calm Calm - N/A   Clear
8:55 PM 51.8 °F 37.4 °F 58% 30.10 in 10.0 mi Calm Calm - N/A   Clear
9:15 PM 49.1 °F 38.1 °F 66% 30.09 in 7.0 mi Calm Calm - N/A   Clear
9:35 PM 48.0 °F 36.9 °F 65% 30.09 in 7.0 mi Calm Calm - N/A   Clear
9:55 PM 46.4 °F 37.4 °F 71% 30.09 in 5.0 mi Calm Calm - N/A   Haze
10:15 PM 45.1 °F 35.4 °F 69% 30.09 in 10.0 mi Calm Calm - N/A   Clear
10:35 PM 43.2 °F 36.0 °F 76% 30.09 in 10.0 mi Calm Calm - N/A   Clear
10:55 PM 43.5 °F 35.1 °F 72% 30.09 in 10.0 mi Calm Calm - N/A   Clear
11:15 PM 42.1 °F 35.6 °F 78% 30.09 in 10.0 mi Calm Calm - N/A   Clear
11:35 PM 42.1 °F 34.3 °F 74% 30.08 in 10.0 mi Calm Calm - N/A   Clear
11:55 PM 40.6 °F 35.2 °F 81% 30.08 in 10.0 mi Calm Calm - N/A   Clear